Location: Caltech
(34.1382°N, 118.1253°W)
Time: 07:30:48
(UTC-07:00)

Cosmos 1408 Rocket - Visible Passes

Search period start: 04 September 2015 00:00
Search period end: 14 September 2015 00:00
Orbit: 601 x 633 km, 82.6° (Epoch: 02 September)

Date Brightness Start Highest point End Pass type
(mag) Time Alt. Az. Time Alt. Az. Time Alt. Az.
04 Sep 4.7 21:17:16 10° N 21:19:54 33° NNE 21:19:54 33° NNE visible
05 Sep 4.7 21:33:50 10° N 21:36:45 41° NNW 21:36:45 41° NNW visible
06 Sep 5.3 20:14:20 10° NE 20:16:32 15° ENE 20:16:32 15° ENE visible
06 Sep 5.3 21:50:45 10° NNW 21:53:40 31° WNW 21:53:40 31° WNW visible
07 Sep 4.6 20:29:54 10° NNE 20:33:28 28° ENE 20:33:28 28° ENE visible
07 Sep 6.1 22:08:09 10° NW 22:10:37 19° WNW 22:10:37 19° WNW visible
08 Sep 3.6 20:46:05 10° N 20:50:25 54° E 20:50:29 54° E visible
09 Sep 3.6 21:02:39 10° N 21:07:04 75° W 21:07:33 67° SSW visible
10 Sep 5.3 19:43:11 10° NE 19:45:36 15° ENE 19:47:33 12° E visible
10 Sep 4.9 21:19:33 10° NNW 21:23:39 37° W 21:24:42 32° WSW visible
11 Sep 4.5 19:58:44 10° NNE 20:02:30 27° ENE 20:04:47 18° ESE visible
11 Sep 6.0 21:36:55 10° NW 21:40:11 20° W 21:41:56 16° WSW visible
12 Sep 3.7 20:14:55 10° N 20:19:15 53° E 20:22:09 20° SSE visible
13 Sep 3.7 20:31:28 10° N 20:35:54 77° W 20:39:40 14° S visible
